VBD205 SBGL-SBCF

Flight info

Callsign VBD205
Flight time 1h 18m
Altitude 12000
Route DAKDA UZ4 TOKUR
Aircraft TBM9/L-SDFGRWY/S

Departure

Time 2026-04-29 14:47
Airport Rio Galeão – Tom Jobim International Airport (SBGL)

Arrival

Time 2026-04-29 16:05
Airport Tancredo Neves International Airport (SBCF)
Time Latitude Longitude Altitude Speed Heading
2026-04-29 14:45 -22.80172 -43.25443 20 ft 0 kts 75°
2026-04-29 14:45 -22.80168 -43.25430 20 ft 15 kts 76°
2026-04-29 14:46 -22.80073 -43.25068 24 ft 83 kts 74°
2026-04-29 14:46 -22.79868 -43.24597 566 ft 45 kts 18°
2026-04-29 14:46 -22.79258 -43.24884 216 ft 123 kts 333°
2026-04-29 14:46 -22.78370 -43.25046 523 ft 144 kts 18°
2026-04-29 14:47 -22.77383 -43.24663 846 ft 159 kts 10°
2026-04-29 14:47 -22.76224 -43.24527 1183 ft 175 kts
2026-04-29 14:47 -22.74969 -43.24406 1524 ft 186 kts
2026-04-29 14:47 -22.73659 -43.24273 1914 ft 191 kts
2026-04-29 14:48 -22.72332 -43.24137 2342 ft 192 kts
2026-04-29 14:48 -22.70990 -43.24001 2779 ft 197 kts
2026-04-29 14:48 -22.69617 -43.23857 3204 ft 199 kts
2026-04-29 14:48 -22.68226 -43.23710 3629 ft 202 kts
2026-04-29 14:49 -22.66828 -43.23563 4051 ft 202 kts
2026-04-29 14:49 -22.65431 -43.23426 4475 ft 202 kts
2026-04-29 14:49 -22.64028 -43.23280 4895 ft 203 kts
2026-04-29 14:49 -22.62622 -43.23134 5314 ft 203 kts
2026-04-29 14:50 -22.61216 -43.22986 5739 ft 203 kts
2026-04-29 14:50 -22.59804 -43.22841 6162 ft 204 kts
2026-04-29 14:50 -22.58392 -43.22697 6584 ft 204 kts
2026-04-29 14:50 -22.56983 -43.22552 7006 ft 204 kts
2026-04-29 14:51 -22.55568 -43.22405 7428 ft 204 kts
2026-04-29 14:51 -22.54169 -43.22261 7844 ft 205 kts
2026-04-29 14:51 -22.52748 -43.22111 8273 ft 206 kts
2026-04-29 14:51 -22.51314 -43.21965 8664 ft 210 kts
2026-04-29 14:52 -22.49840 -43.21813 8988 ft 215 kts
2026-04-29 14:52 -22.48344 -43.21656 9313 ft 217 kts
2026-04-29 14:52 -22.46830 -43.21501 9636 ft 219 kts
2026-04-29 14:52 -22.45307 -43.21341 9966 ft 221 kts
2026-04-29 14:53 -22.43772 -43.21184 10286 ft 222 kts
2026-04-29 14:53 -22.42229 -43.21027 10612 ft 223 kts
2026-04-29 14:53 -22.40680 -43.20867 10937 ft 224 kts
2026-04-29 14:53 -22.39126 -43.20703 11262 ft 225 kts
2026-04-29 14:54 -22.37564 -43.20543 11583 ft 226 kts
2026-04-29 14:54 -22.36000 -43.20383 11907 ft 226 kts
2026-04-29 14:54 -22.34403 -43.20216 11999 ft 237 kts
2026-04-29 14:54 -22.32725 -43.20037 12005 ft 248 kts
2026-04-29 14:55 -22.30979 -43.19856 12013 ft 256 kts
2026-04-29 14:55 -22.29179 -43.19667 12013 ft 263 kts
2026-04-29 14:55 -22.27341 -43.19477 12012 ft 267 kts
2026-04-29 14:55 -22.25484 -43.19287 12010 ft 269 kts
2026-04-29 14:56 -22.23616 -43.19094 12011 ft 270 kts
2026-04-29 14:56 -22.21742 -43.18901 12010 ft 271 kts
2026-04-29 14:56 -22.19865 -43.18707 12008 ft 271 kts
2026-04-29 14:56 -22.17984 -43.18518 12006 ft 271 kts
2026-04-29 14:57 -22.16103 -43.18323 12005 ft 272 kts
2026-04-29 14:57 -22.14223 -43.18130 12003 ft 272 kts
2026-04-29 14:57 -22.12341 -43.17936 12001 ft 272 kts
2026-04-29 14:57 -22.10458 -43.17742 11998 ft 272 kts
2026-04-29 14:58 -22.08576 -43.17548 11989 ft 272 kts
2026-04-29 14:58 -22.06695 -43.17358 11996 ft 271 kts
2026-04-29 14:58 -22.04815 -43.17165 11997 ft 271 kts
2026-04-29 14:58 -22.02933 -43.16969 11986 ft 272 kts
2026-04-29 14:59 -22.01051 -43.16778 11996 ft 272 kts
2026-04-29 14:59 -21.99167 -43.16588 11992 ft 272 kts
2026-04-29 14:59 -21.97284 -43.16389 11995 ft 272 kts
2026-04-29 14:59 -21.95401 -43.16194 11996 ft 272 kts
2026-04-29 15:00 -21.93517 -43.16005 11993 ft 272 kts
2026-04-29 15:00 -21.91634 -43.15813 11987 ft 272 kts
2026-04-29 15:00 -21.89751 -43.15618 11991 ft 272 kts
2026-04-29 15:00 -21.87870 -43.15427 11994 ft 272 kts
2026-04-29 15:01 -21.85984 -43.15233 11994 ft 272 kts
2026-04-29 15:01 -21.84101 -43.15040 11989 ft 272 kts
2026-04-29 15:01 -21.82216 -43.14849 11996 ft 272 kts
2026-04-29 15:01 -21.80330 -43.14653 11994 ft 272 kts
2026-04-29 15:02 -21.78443 -43.14460 11994 ft 272 kts
2026-04-29 15:02 -21.76556 -43.14270 11993 ft 272 kts
2026-04-29 15:02 -21.74669 -43.14078 11994 ft 272 kts
2026-04-29 15:02 -21.72785 -43.13882 11995 ft 272 kts
2026-04-29 15:03 -21.70897 -43.13689 11994 ft 272 kts
2026-04-29 15:03 -21.69009 -43.13499 11995 ft 273 kts
2026-04-29 15:03 -21.67122 -43.13305 11994 ft 272 kts
2026-04-29 15:03 -21.65238 -43.13114 11994 ft 272 kts
2026-04-29 15:04 -21.63380 -43.12924 11993 ft 272 kts
2026-04-29 15:04 -21.61496 -43.12727 11987 ft 272 kts
2026-04-29 15:04 -21.59616 -43.12538 11990 ft 271 kts
2026-04-29 15:04 -21.57737 -43.12349 11989 ft 271 kts
2026-04-29 15:05 -21.55857 -43.12155 11994 ft 272 kts
2026-04-29 15:05 -21.53975 -43.11964 11996 ft 271 kts
2026-04-29 15:05 -21.52094 -43.11772 11993 ft 272 kts
2026-04-29 15:05 -21.50215 -43.11581 11983 ft 271 kts
2026-04-29 15:06 -21.48333 -43.11388 11996 ft 272 kts
2026-04-29 15:06 -21.46451 -43.11197 11996 ft 272 kts
2026-04-29 15:06 -21.44568 -43.11005 11997 ft 272 kts
2026-04-29 15:06 -21.42685 -43.10815 11995 ft 272 kts
2026-04-29 15:07 -21.40801 -43.10624 11996 ft 272 kts
2026-04-29 15:07 -21.38919 -43.10431 11995 ft 272 kts
2026-04-29 15:07 -21.37036 -43.10237 11987 ft 272 kts
2026-04-29 15:07 -21.35151 -43.10050 11995 ft 272 kts
2026-04-29 15:08 -21.33267 -43.09856 11987 ft 272 kts
2026-04-29 15:08 -21.31384 -43.09665 11994 ft 272 kts
2026-04-29 15:08 -21.29500 -43.09474 11989 ft 272 kts
2026-04-29 15:08 -21.27616 -43.09405 11986 ft 271 kts 354°
2026-04-29 15:09 -21.25753 -43.09737 11998 ft 272 kts 351°
2026-04-29 15:09 -21.23885 -43.10036 11998 ft 272 kts 352°
2026-04-29 15:09 -21.22014 -43.10326 11990 ft 272 kts 352°
2026-04-29 15:09 -21.20146 -43.10632 11996 ft 272 kts 352°
2026-04-29 15:10 -21.18276 -43.10938 11996 ft 272 kts 352°
2026-04-29 15:10 -21.16411 -43.11243 11993 ft 271 kts 352°
2026-04-29 15:10 -21.14542 -43.11550 11997 ft 271 kts 352°
2026-04-29 15:10 -21.12672 -43.11850 11996 ft 272 kts 352°
2026-04-29 15:11 -21.10805 -43.12155 11997 ft 272 kts 352°
2026-04-29 15:11 -21.08933 -43.12462 11998 ft 272 kts 352°
2026-04-29 15:11 -21.07058 -43.12765 11989 ft 273 kts 352°
2026-04-29 15:11 -21.05209 -43.13066 11997 ft 273 kts 352°
2026-04-29 15:12 -21.03333 -43.13371 11997 ft 272 kts 352°
2026-04-29 15:12 -21.02067 -43.13578 11995 ft 273 kts 352°
2026-04-29 15:12 -20.99560 -43.13988 11996 ft 273 kts 352°
2026-04-29 15:12 -20.97683 -43.14289 11996 ft 273 kts 352°
2026-04-29 15:13 -20.95832 -43.14589 11989 ft 273 kts 352°
2026-04-29 15:13 -20.93957 -43.14895 11997 ft 272 kts 352°
2026-04-29 15:13 -20.92083 -43.15201 11996 ft 272 kts 352°
2026-04-29 15:13 -20.90209 -43.15504 11996 ft 272 kts 352°
2026-04-29 15:14 -20.88337 -43.15808 11995 ft 272 kts 352°
2026-04-29 15:14 -20.86468 -43.16111 11997 ft 272 kts 352°
2026-04-29 15:14 -20.84595 -43.16414 11990 ft 272 kts 352°
2026-04-29 15:14 -20.82722 -43.16719 11994 ft 272 kts 352°
2026-04-29 15:15 -20.80903 -43.17241 11979 ft 271 kts 336°
2026-04-29 15:15 -20.79288 -43.18274 11996 ft 271 kts 324°
2026-04-29 15:15 -20.77755 -43.19450 11994 ft 271 kts 325°
2026-04-29 15:15 -20.76215 -43.20609 11993 ft 271 kts 325°
2026-04-29 15:16 -20.74675 -43.21768 11995 ft 271 kts 325°
2026-04-29 15:16 -20.73139 -43.22936 11994 ft 271 kts 325°
2026-04-29 15:16 -20.71601 -43.24101 11994 ft 271 kts 325°
2026-04-29 15:16 -20.70060 -43.25260 11995 ft 271 kts 325°
2026-04-29 15:17 -20.69041 -43.26029 11985 ft 271 kts 325°
2026-04-29 15:17 -20.67504 -43.27191 11989 ft 271 kts 325°
2026-04-29 15:17 -20.65469 -43.28726 11986 ft 271 kts 325°
2026-04-29 15:17 -20.64428 -43.29515 11994 ft 271 kts 325°
2026-04-29 15:18 -20.62387 -43.31048 11993 ft 271 kts 325°
2026-04-29 15:18 -20.60849 -43.32213 11993 ft 271 kts 325°
2026-04-29 15:18 -20.59310 -43.33374 11993 ft 271 kts 325°
2026-04-29 15:18 -20.58270 -43.34155 11987 ft 271 kts 325°
2026-04-29 15:19 -20.56752 -43.35299 11994 ft 271 kts 325°
2026-04-29 15:19 -20.55214 -43.36462 11996 ft 271 kts 325°
2026-04-29 15:19 -20.53651 -43.37637 11996 ft 271 kts 325°
2026-04-29 15:19 -20.52130 -43.38782 11990 ft 272 kts 325°
2026-04-29 15:20 -20.50585 -43.39943 11991 ft 271 kts 325°
2026-04-29 15:20 -20.49045 -43.41106 11994 ft 271 kts 325°
2026-04-29 15:20 -20.47504 -43.42265 11986 ft 271 kts 325°
2026-04-29 15:20 -20.45951 -43.43405 11996 ft 271 kts 327°
2026-04-29 15:21 -20.44373 -43.44500 11997 ft 271 kts 328°
2026-04-29 15:21 -20.42782 -43.45586 11987 ft 272 kts 323°
2026-04-29 15:21 -20.41599 -43.47133 11984 ft 271 kts 296°
2026-04-29 15:21 -20.41195 -43.49078 11987 ft 271 kts 270°
2026-04-29 15:22 -20.41643 -43.51015 11986 ft 272 kts 244°
2026-04-29 15:22 -20.42605 -43.52740 12011 ft 270 kts 249°
2026-04-29 15:22 -20.42822 -43.54705 12016 ft 270 kts 279°
2026-04-29 15:22 -20.42064 -43.56514 12016 ft 271 kts 309°
2026-04-29 15:23 -20.40555 -43.57685 12016 ft 272 kts 338°
2026-04-29 15:23 -20.38744 -43.58274 12011 ft 273 kts 345°
2026-04-29 15:23 -20.36942 -43.58899 12001 ft 273 kts 338°
2026-04-29 15:23 -20.35271 -43.59849 12002 ft 272 kts 330°
2026-04-29 15:24 -20.33464 -43.60398 12014 ft 273 kts 359°
2026-04-29 15:24 -20.31575 -43.60198 12012 ft 273 kts
2026-04-29 15:24 -20.29701 -43.59862 12007 ft 273 kts
2026-04-29 15:24 -20.27805 -43.59693 11985 ft 274 kts
2026-04-29 15:25 -20.25909 -43.59815 11994 ft 273 kts 353°
2026-04-29 15:25 -20.24056 -43.60238 11987 ft 272 kts 344°
2026-04-29 15:25 -20.22284 -43.60946 11994 ft 272 kts 335°
2026-04-29 15:25 -20.20627 -43.61927 11993 ft 273 kts 327°
2026-04-29 15:26 -20.19126 -43.63156 11985 ft 273 kts 319°
2026-04-29 15:26 -20.17810 -43.64609 11995 ft 272 kts 310°
2026-04-29 15:26 -20.16727 -43.66227 11991 ft 272 kts 302°
2026-04-29 15:26 -20.15868 -43.68018 11996 ft 272 kts 293°
2026-04-29 15:27 -20.15266 -43.69921 11994 ft 271 kts 285°
2026-04-29 15:27 -20.14936 -43.71898 11993 ft 272 kts 276°
2026-04-29 15:27 -20.14883 -43.73903 11991 ft 271 kts 268°
2026-04-29 15:27 -20.15111 -43.75887 11987 ft 271 kts 259°
2026-04-29 15:28 -20.15614 -43.77813 11990 ft 270 kts 251°
2026-04-29 15:28 -20.16103 -43.79058 11987 ft 270 kts 245°
2026-04-29 15:28 -20.17400 -43.81326 11994 ft 271 kts 234°
2026-04-29 15:28 -20.18640 -43.82835 11992 ft 271 kts 226°
2026-04-29 15:29 -20.20077 -43.84132 11996 ft 271 kts 217°
2026-04-29 15:29 -20.23419 -43.85973 11986 ft 273 kts 200°
2026-04-29 15:30 -20.27143 -43.86739 11999 ft 273 kts 191°
2026-04-29 15:30 -20.28853 -43.87554 12017 ft 272 kts 220°
2026-04-29 15:30 -20.29940 -43.89170 12015 ft 271 kts 250°
2026-04-29 15:30 -20.30119 -43.91148 12018 ft 271 kts 280°
2026-04-29 15:31 -20.29351 -43.92960 12016 ft 271 kts 309°
2026-04-29 15:31 -20.27842 -43.94133 12015 ft 272 kts 338°
2026-04-29 15:31 -20.26070 -43.94844 12010 ft 273 kts 342°
2026-04-29 15:31 -20.24230 -43.95315 12012 ft 272 kts 348°
2026-04-29 15:32 -20.22393 -43.95813 12002 ft 273 kts 343°
2026-04-29 15:32 -20.20652 -43.96606 11990 ft 273 kts 330°
2026-04-29 15:32 -20.19091 -43.97748 11993 ft 273 kts 323°
2026-04-29 15:32 -20.17584 -43.98978 11995 ft 273 kts 323°
2026-04-29 15:33 -20.16047 -44.00159 11997 ft 272 kts 326°
2026-04-29 15:33 -20.14473 -44.01279 11996 ft 272 kts 327°
2026-04-29 15:33 -20.12906 -44.02409 11995 ft 272 kts 326°
2026-04-29 15:33 -20.11351 -44.03554 11987 ft 272 kts 326°
2026-04-29 15:34 -20.09797 -44.04695 11994 ft 271 kts 326°
2026-04-29 15:34 -20.08239 -44.05832 11994 ft 271 kts 326°
2026-04-29 15:34 -20.06680 -44.06968 11989 ft 272 kts 326°
2026-04-29 15:34 -20.05122 -44.08106 11995 ft 272 kts 326°
2026-04-29 15:35 -20.03563 -44.09246 11994 ft 272 kts 326°
2026-04-29 15:35 -20.02005 -44.10385 11994 ft 272 kts 326°
2026-04-29 15:35 -20.00444 -44.11522 11994 ft 272 kts 326°
2026-04-29 15:35 -19.98887 -44.12659 11995 ft 272 kts 326°
2026-04-29 15:36 -19.97332 -44.13797 11996 ft 271 kts 326°
2026-04-29 15:36 -19.95772 -44.14930 11995 ft 271 kts 326°
2026-04-29 15:36 -19.94217 -44.16064 11993 ft 271 kts 326°
2026-04-29 15:36 -19.92661 -44.17199 11994 ft 272 kts 326°
2026-04-29 15:37 -19.91103 -44.18335 11987 ft 271 kts 326°
2026-04-29 15:37 -19.89545 -44.19469 11995 ft 272 kts 326°
2026-04-29 15:37 -19.87984 -44.20608 11988 ft 272 kts 326°
2026-04-29 15:37 -19.86426 -44.21743 11994 ft 272 kts 326°
2026-04-29 15:38 -19.84868 -44.22876 11993 ft 271 kts 326°
2026-04-29 15:38 -19.83311 -44.24009 11993 ft 271 kts 326°
2026-04-29 15:38 -19.81755 -44.25146 11994 ft 272 kts 326°
2026-04-29 15:38 -19.80195 -44.26275 11993 ft 271 kts 326°
2026-04-29 15:39 -19.78661 -44.27393 11993 ft 271 kts 326°
2026-04-29 15:39 -19.77107 -44.28524 11996 ft 271 kts 326°
2026-04-29 15:39 -19.75550 -44.29657 11993 ft 271 kts 326°
2026-04-29 15:39 -19.73992 -44.30788 11995 ft 271 kts 326°
2026-04-29 15:40 -19.72436 -44.31918 11994 ft 271 kts 326°
2026-04-29 15:40 -19.70879 -44.33050 11985 ft 271 kts 326°
2026-04-29 15:40 -19.69323 -44.34184 11993 ft 271 kts 326°
2026-04-29 15:40 -19.67764 -44.35312 11995 ft 271 kts 326°
2026-04-29 15:41 -19.66207 -44.36442 11995 ft 271 kts 326°
2026-04-29 15:41 -19.64651 -44.37572 11995 ft 272 kts 326°
2026-04-29 15:41 -19.63094 -44.38704 11995 ft 271 kts 326°
2026-04-29 15:41 -19.61536 -44.39832 11986 ft 271 kts 326°
2026-04-29 15:42 -19.59979 -44.40963 11994 ft 271 kts 326°
2026-04-29 15:42 -19.58420 -44.42094 11995 ft 272 kts 326°
2026-04-29 15:42 -19.56859 -44.43224 11994 ft 272 kts 326°
2026-04-29 15:42 -19.55298 -44.44356 11989 ft 272 kts 326°
2026-04-29 15:43 -19.53740 -44.45483 11993 ft 271 kts 326°
2026-04-29 15:43 -19.52181 -44.46615 11994 ft 271 kts 326°
2026-04-29 15:43 -19.50625 -44.47746 11994 ft 271 kts 326°
2026-04-29 15:43 -19.49067 -44.48869 11993 ft 271 kts 326°
2026-04-29 15:44 -19.47512 -44.49995 11994 ft 271 kts 326°
2026-04-29 15:44 -19.45958 -44.51119 11994 ft 271 kts 326°
2026-04-29 15:44 -19.44403 -44.52248 11995 ft 271 kts 326°
2026-04-29 15:44 -19.42846 -44.53370 11992 ft 271 kts 326°
2026-04-29 15:45 -19.41290 -44.54498 11991 ft 271 kts 326°
2026-04-29 15:45 -19.39736 -44.55622 11993 ft 270 kts 326°
2026-04-29 15:45 -19.38181 -44.56746 11994 ft 271 kts 326°
2026-04-29 15:45 -19.36626 -44.57869 11993 ft 271 kts 326°
2026-04-29 15:46 -19.35047 -44.58953 12001 ft 271 kts 333°
2026-04-29 15:46 -19.33263 -44.59581 12011 ft 271 kts 349°
2026-04-29 15:46 -19.31385 -44.59677 12012 ft 272 kts
2026-04-29 15:46 -19.29545 -44.59221 12014 ft 273 kts 21°
2026-04-29 15:47 -19.27892 -44.58243 12011 ft 273 kts 38°
2026-04-29 15:47 -19.26556 -44.56819 12014 ft 274 kts 53°
2026-04-29 15:47 -19.25643 -44.55055 12013 ft 274 kts 70°
2026-04-29 15:47 -19.25224 -44.53119 11942 ft 256 kts 84°
2026-04-29 15:48 -19.25035 -44.51267 10482 ft 258 kts 85°
2026-04-29 15:48 -19.24852 -44.49360 9449 ft 258 kts 85°
2026-04-29 15:48 -19.24665 -44.47495 8542 ft 253 kts 85°
2026-04-29 15:48 -19.24477 -44.45657 7594 ft 249 kts 84°
2026-04-29 15:49 -19.24293 -44.43844 6678 ft 246 kts 85°
2026-04-29 15:49 -19.24115 -44.42056 5772 ft 243 kts 85°
2026-04-29 15:49 -19.23937 -44.40341 5297 ft 225 kts 84°
2026-04-29 15:49 -19.23760 -44.38799 5286 ft 193 kts 84°
2026-04-29 15:50 -19.23627 -44.37477 5285 ft 172 kts 85°
2026-04-29 15:50 -19.23507 -44.36274 5287 ft 163 kts 85°
2026-04-29 15:50 -19.23576 -44.35091 5285 ft 158 kts 109°
2026-04-29 15:50 -19.24106 -44.34109 5289 ft 153 kts 134°
2026-04-29 15:51 -19.24880 -44.33357 5293 ft 154 kts 140°
2026-04-29 15:51 -19.25705 -44.32568 5295 ft 171 kts 139°
2026-04-29 15:51 -19.26618 -44.31686 5309 ft 184 kts 139°
2026-04-29 15:51 -19.27603 -44.30759 5302 ft 193 kts 139°
2026-04-29 15:52 -19.28609 -44.29798 5307 ft 196 kts 139°
2026-04-29 15:52 -19.29626 -44.28811 5300 ft 199 kts 139°
2026-04-29 15:52 -19.30658 -44.27824 5305 ft 201 kts 139°
2026-04-29 15:52 -19.31703 -44.26829 5305 ft 202 kts 139°
2026-04-29 15:53 -19.32741 -44.25829 5300 ft 201 kts 139°
2026-04-29 15:53 -19.33779 -44.24829 5303 ft 202 kts 139°
2026-04-29 15:53 -19.34819 -44.23829 5303 ft 202 kts 139°
2026-04-29 15:53 -19.35861 -44.22828 5298 ft 202 kts 139°
2026-04-29 15:54 -19.36899 -44.21826 5296 ft 202 kts 139°
2026-04-29 15:54 -19.37941 -44.20834 5297 ft 202 kts 139°
2026-04-29 15:54 -19.38949 -44.19864 5292 ft 180 kts 139°
2026-04-29 15:54 -19.39797 -44.19041 5284 ft 155 kts 139°
2026-04-29 15:55 -19.40565 -44.18297 5282 ft 145 kts 139°
2026-04-29 15:55 -19.41292 -44.17595 5284 ft 139 kts 139°
2026-04-29 15:55 -19.41995 -44.16919 5280 ft 134 kts 139°
2026-04-29 15:55 -19.42676 -44.16262 5288 ft 133 kts 139°
2026-04-29 15:56 -19.43363 -44.15601 5289 ft 133 kts 139°
2026-04-29 15:56 -19.44038 -44.14952 5286 ft 129 kts 139°
2026-04-29 15:56 -19.44696 -44.14316 5295 ft 128 kts 139°
2026-04-29 15:56 -19.45362 -44.13682 5292 ft 128 kts 139°
2026-04-29 15:57 -19.46010 -44.13062 5286 ft 121 kts 139°
2026-04-29 15:57 -19.46618 -44.12479 5289 ft 114 kts 139°
2026-04-29 15:57 -19.47202 -44.11903 5286 ft 115 kts 138°
2026-04-29 15:57 -19.47802 -44.11328 5282 ft 117 kts 140°
2026-04-29 15:58 -19.48400 -44.10757 5284 ft 115 kts 139°
2026-04-29 15:58 -19.48982 -44.10206 5291 ft 113 kts 139°
2026-04-29 15:58 -19.49577 -44.09662 5292 ft 113 kts 141°
2026-04-29 15:58 -19.50135 -44.09143 5274 ft 98 kts 140°
2026-04-29 15:59 -19.50642 -44.08661 5270 ft 101 kts 141°
2026-04-29 15:59 -19.51188 -44.08167 5288 ft 105 kts 139°
2026-04-29 15:59 -19.51747 -44.07648 5290 ft 115 kts 141°
2026-04-29 15:59 -19.52407 -44.07044 5152 ft 133 kts 140°
2026-04-29 16:00 -19.53118 -44.06381 4922 ft 143 kts 141°
2026-04-29 16:00 -19.53909 -44.05652 4467 ft 157 kts 140°
2026-04-29 16:00 -19.54723 -44.04895 4208 ft 150 kts 141°
2026-04-29 16:00 -19.55450 -44.04222 4189 ft 128 kts 140°
2026-04-29 16:01 -19.56066 -44.03646 4176 ft 108 kts 141°
2026-04-29 16:01 -19.56587 -44.03163 4123 ft 94 kts 140°
2026-04-29 16:01 -19.57071 -44.02716 4058 ft 89 kts 139°
2026-04-29 16:01 -19.57562 -44.02262 3993 ft 103 kts 141°
2026-04-29 16:02 -19.58130 -44.01729 3853 ft 110 kts 141°
2026-04-29 16:02 -19.58681 -44.01226 3710 ft 100 kts 140°
2026-04-29 16:02 -19.59185 -44.00748 3572 ft 97 kts 140°
2026-04-29 16:02 -19.59702 -44.00270 3451 ft 100 kts 141°
2026-04-29 16:03 -19.60243 -43.99778 3314 ft 104 kts 141°
2026-04-29 16:03 -19.60782 -43.99269 3176 ft 104 kts 140°
2026-04-29 16:03 -19.61322 -43.98772 3037 ft 102 kts 141°
2026-04-29 16:03 -19.61851 -43.98282 2903 ft 100 kts 139°
2026-04-29 16:04 -19.62369 -43.97800 2774 ft 98 kts 141°
2026-04-29 16:04 -19.62864 -43.97342 2723 ft 89 kts 140°
2026-04-29 16:04 -19.63317 -43.96927 2717 ft 83 kts 142°
2026-04-29 16:04 -19.63738 -43.96558 2717 ft 67 kts 139°
2026-04-29 16:05 -19.63833 -43.96469 2724 ft 3 kts 137°
2026-04-29 16:05 -19.63859 -43.96440 2718 ft 9 kts 128°
2026-04-29 16:05 -19.63891 -43.96398 2717 ft 14 kts 135°
2026-04-29 16:05 -19.64006 -43.96289 2718 ft 18 kts 140°
2026-04-29 16:06 -19.64070 -43.96234 2717 ft 18 kts 140°
2026-04-29 16:06 -19.64172 -43.96143 2716 ft 20 kts 139°
2026-04-29 16:06 -19.64276 -43.96047 2716 ft 20 kts 138°
2026-04-29 16:06 -19.64363 -43.95936 2719 ft 17 kts 90°
2026-04-29 16:07 -19.64352 -43.95902 2720 ft 0 kts 53°
2026-04-29 16:07 -19.64340 -43.95889 2716 ft 6 kts 44°
2026-04-29 16:07 -19.64292 -43.95839 2717 ft 14 kts 27°
2026-04-29 16:08 -19.64193 -43.95887 2717 ft 21 kts 312°
2026-04-29 16:08 -19.64071 -43.96005 2717 ft 25 kts 321°
2026-04-29 16:08 -19.63938 -43.96121 2717 ft 24 kts 321°
2026-04-29 16:08 -19.63811 -43.96237 2720 ft 24 kts 318°
2026-04-29 16:09 -19.63684 -43.96349 2717 ft 23 kts 321°
2026-04-29 16:09 -19.63564 -43.96321 2717 ft 19 kts 22°
2026-04-29 16:09 -19.63441 -43.96313 2717 ft 18 kts 306°
2026-04-29 16:09 -19.63378 -43.96387 2717 ft 13 kts 297°
2026-04-29 16:10 -19.63325 -43.96473 2717 ft 15 kts 325°
2026-04-29 16:10 -19.63243 -43.96495 2717 ft 11 kts 81°
2026-04-29 16:10 -19.63208 -43.96527 2717 ft 9 kts 311°
2026-04-29 16:10 -19.63150 -43.96517 2719 ft 10 kts 33°
2026-04-29 16:11 -19.63128 -43.96513 2717 ft 0 kts 22°